When you browse on this site, cookies collect data to enhance your experience and personalize the content and advertising you see.
Visit our Privacy Policy to learn more. By continuing to use the site, you agree to this use of cookies and data.
  • In France
  • List of Countries
  • For 7 days
  • Water Temperature
  • Weather Map
  • Weather Widgets
  • user-avatar
    Login

    Hourly Weather Djibouti

    Today, 4 June, Thursday

    Time Temperature Precipitation Wind Pressure Humidity
    00:00 +35°C° 0 mm 3 mps 753 mmHg 64%
    01:00 +34°C° 0 mm 2 mps 752 mmHg 67%
    02:00 +33°C° 0 mm 1 mps 752 mmHg 71%
    03:00 +32°C° 0 mm 1 mps 751 mmHg 74%
    04:00 +32°C° 0 mm 1 mps 752 mmHg 73%
    05:00 +33°C° 0 mm 1 mps 753 mmHg 72%
    06:00 +34°C° 0 mm 2 mps 753 mmHg 71%
    07:00 +35°C° 0 mm 2 mps 753 mmHg 63%
    08:00 +35°C° 0 mm 2 mps 754 mmHg 56%
    09:00 +36°C° 0 mm 3 mps 754 mmHg 48%
    10:00 +36°C° 0 mm 4 mps 754 mmHg 53%
    11:00 +36°C° 0 mm 5 mps 754 mmHg 58%
    12:00 +36°C° 0 mm 7 mps 753 mmHg 63%
    13:00 +36°C° 0 mm 7 mps 753 mmHg 61%
    14:00 +36°C° 0 mm 7 mps 752 mmHg 60%
    15:00 +36°C° 0 mm 7 mps 751 mmHg 59%
    16:00 +35°C° 0 mm 6 mps 752 mmHg 61%
    17:00 +35°C° 0 mm 6 mps 752 mmHg 64%
    18:00 +34°C° 0 mm 5 mps 752 mmHg 66%
    19:00 +34°C° 0 mm 5 mps 753 mmHg 68%
    20:00 +33°C° 0 mm 4 mps 753 mmHg 71%
    21:00 +33°C° 0 mm 4 mps 754 mmHg 73%
    22:00 +33°C° 0 mm 3 mps 754 mmHg 75%
    23:00 +31°C° 0 mm 3 mps 754 mmHg 77%

    Tomorrow, 5 June, Friday

    Time Temperature Precipitation Wind Pressure Humidity
    00:00 +31°C° 0 mm 3 mps 754 mmHg 79%
    01:00 +31°C° 0 mm 2 mps 754 mmHg 81%
    02:00 +31°C° 0 mm 2 mps 753 mmHg 82%
    03:00 +31°C° 0 mm 2 mps 753 mmHg 84%
    04:00 +31°C° 0 mm 1 mps 753 mmHg 84%
    05:00 +31°C° 0 mm 1 mps 754 mmHg 83%
    06:00 +29°C° 0 mm 0 mps 754 mmHg 83%
    07:00 +30°C° 0 mm 0 mps 754 mmHg 75%
    08:00 +33°C° 0 mm 1 mps 755 mmHg 68%
    09:00 +34°C° 0 mm 1 mps 755 mmHg 60%
    10:00 +36°C° 0 mm 2 mps 755 mmHg 56%
    11:00 +37°C° 0 mm 3 mps 755 mmHg 52%
    12:00 +38°C° 0 mm 4 mps 754 mmHg 48%
    13:00 +38°C° 0 mm 4 mps 754 mmHg 48%
    14:00 +39°C° 0 mm 5 mps 753 mmHg 49%
    15:00 +39°C° 0 mm 5 mps 752 mmHg 49%
    16:00 +37°C° 0 mm 5 mps 752 mmHg 51%
    17:00 +36°C° 0 mm 5 mps 752 mmHg 54%
    18:00 +36°C° 0 mm 5 mps 752 mmHg 57%
    19:00 +35°C° 0 mm 4 mps 753 mmHg 58%
    20:00 +35°C° 0 mm 3 mps 753 mmHg 58%
    21:00 +33°C° 0 mm 1 mps 754 mmHg 59%
    22:00 +33°C° 0 mm 1 mps 754 mmHg 58%
    23:00 +33°C° 0 mm 1 mps 754 mmHg 58%

    Day after tomorrow, 6 June, Saturday

    Time Temperature Precipitation Wind Pressure Humidity
    00:00 +33°C° 0 mm 1 mps 754 mmHg 57%
    01:00 +34°C° 0 mm 2 mps 754 mmHg 57%
    02:00 +34°C° 0 mm 2 mps 754 mmHg 58%
    03:00 +34°C° 0 mm 2 mps 753 mmHg 58%
    04:00 +34°C° 0 mm 2 mps 754 mmHg 56%
    05:00 +34°C° 0 mm 2 mps 754 mmHg 53%
    06:00 +34°C° 0 mm 2 mps 755 mmHg 51%
    07:00 +36°C° 0 mm 2 mps 755 mmHg 45%
    08:00 +38°C° 0 mm 3 mps 755 mmHg 39%
    09:00 +39°C° 0 mm 3 mps 756 mmHg 34%
    10:00 +40°C° 0 mm 3 mps 755 mmHg 32%
    11:00 +42°C° 0 mm 4 mps 755 mmHg 30%
    12:00 +43°C° 0 mm 4 mps 754 mmHg 28%
    13:00 +43°C° 0 mm 4 mps 753 mmHg 28%
    14:00 +44°C° 0 mm 4 mps 753 mmHg 28%
    15:00 +45°C° 0 mm 5 mps 752 mmHg 28%
    16:00 +42°C° 0 mm 5 mps 752 mmHg 33%
    17:00 +41°C° 0 mm 5 mps 751 mmHg 39%
    18:00 +39°C° 0 mm 5 mps 751 mmHg 44%
    19:00 +38°C° 0 mm 4 mps 752 mmHg 47%
    20:00 +37°C° 0 mm 3 mps 752 mmHg 50%
    21:00 +36°C° 0 mm 3 mps 752 mmHg 52%
    22:00 +36°C° 0 mm 2 mps 752 mmHg 51%
    23:00 +36°C° 0 mm 2 mps 752 mmHg 50%

    7 June, Sunday

    Time Temperature Precipitation Wind Pressure Humidity
    00:00 +36°C° 0 mm 2 mps 752 mmHg 49%
    01:00 +36°C° 0 mm 3 mps 752 mmHg 49%
    02:00 +36°C° 0 mm 3 mps 752 mmHg 49%
    03:00 +36°C° 0 mm 4 mps 752 mmHg 49%
    04:00 +36°C° 0 mm 5 mps 752 mmHg 49%
    05:00 +35°C° 0 mm 7 mps 752 mmHg 49%
    06:00 +35°C° 0 mm 9 mps 753 mmHg 49%
    07:00 +37°C° 0 mm 9 mps 753 mmHg 44%
    08:00 +39°C° 0 mm 10 mps 754 mmHg 40%
    09:00 +40°C° 0 mm 10 mps 754 mmHg 35%
    10:00 +43°C° 0 mm 9 mps 754 mmHg 31%
    11:00 +44°C° 0 mm 8 mps 753 mmHg 27%
    12:00 +46°C° 0 mm 6 mps 753 mmHg 24%
    13:00 +47°C° 0 mm 6 mps 752 mmHg 22%
    14:00 +47°C° 0 mm 5 mps 751 mmHg 20%
    15:00 +48°C° 0 mm 5 mps 750 mmHg 18%
    16:00 +47°C° 0 mm 4 mps 750 mmHg 19%
    17:00 +47°C° 0 mm 4 mps 750 mmHg 20%
    18:00 +45°C° 0 mm 4 mps 750 mmHg 21%
    19:00 +43°C° 0 mm 4 mps 751 mmHg 29%
    20:00 +41°C° 0 mm 4 mps 751 mmHg 37%
    21:00 +38°C° 0 mm 4 mps 751 mmHg 45%
    22:00 +38°C° 0 mm 4 mps 751 mmHg 40%
    23:00 +38°C° 0 mm 4 mps 751 mmHg 35%

    8 June, Monday

    Time Temperature Precipitation Wind Pressure Humidity
    00:00 +40°C° 0 mm 4 mps 751 mmHg 30%
    01:00 +39°C° 0 mm 5 mps 751 mmHg 31%
    02:00 +39°C° 0 mm 5 mps 751 mmHg 32%
    03:00 +37°C° 0 mm 5 mps 751 mmHg 32%
    04:00 +37°C° 0 mm 5 mps 751 mmHg 33%
    05:00 +37°C° 0 mm 5 mps 751 mmHg 33%
    06:00 +38°C° 0 mm 6 mps 751 mmHg 33%
    07:00 +40°C° 0 mm 6 mps 752 mmHg 30%
    08:00 +42°C° 0 mm 6 mps 752 mmHg 27%
    09:00 +44°C° 0 mm 7 mps 752 mmHg 24%
    10:00 +46°C° 0 mm 6 mps 752 mmHg 21%
    11:00 +47°C° 0 mm 5 mps 751 mmHg 19%
    12:00 +48°C° 0 mm 5 mps 751 mmHg 17%
    13:00 +49°C° 0 mm 5 mps 750 mmHg 16%
    14:00 +49°C° 0 mm 5 mps 749 mmHg 15%
    15:00 +49°C° 0 mm 6 mps 749 mmHg 14%
    16:00 +47°C° 0 mm 6 mps 749 mmHg 21%
    17:00 +45°C° 0 mm 5 mps 749 mmHg 28%
    18:00 +42°C° 0 mm 5 mps 749 mmHg 35%
    19:00 +41°C° 0 mm 5 mps 749 mmHg 36%
    20:00 +40°C° 0 mm 5 mps 749 mmHg 38%
    21:00 +38°C° 0 mm 4 mps 750 mmHg 39%
    22:00 +38°C° 0 mm 4 mps 750 mmHg 37%
    23:00 +38°C° 0 mm 4 mps 750 mmHg 36%

    9 June, Tuesday

    Time Temperature Precipitation Wind Pressure Humidity
    00:00 +38°C° 0 mm 3 mps 750 mmHg 34%
    01:00 +38°C° 0 mm 3 mps 750 mmHg 33%
    02:00 +38°C° 0 mm 3 mps 749 mmHg 33%
    03:00 +38°C° 0 mm 3 mps 749 mmHg 33%
    04:00 +38°C° 0 mm 3 mps 750 mmHg 33%
    05:00 +37°C° 0 mm 3 mps 750 mmHg 33%
    06:00 +37°C° 0 mm 3 mps 751 mmHg 34%
    07:00 +38°C° 0 mm 3 mps 751 mmHg 31%
    08:00 +40°C° 0 mm 2 mps 752 mmHg 29%
    09:00 +41°C° 0 mm 1 mps 752 mmHg 27%
    10:00 +43°C° 0 mm 2 mps 752 mmHg 24%
    11:00 +45°C° 0 mm 3 mps 751 mmHg 21%
    12:00 +48°C° 0 mm 4 mps 750 mmHg 18%
    13:00 +48°C° 0 mm 4 mps 750 mmHg 19%
    14:00 +48°C° 0 mm 5 mps 749 mmHg 19%
    15:00 +49°C° 0 mm 6 mps 749 mmHg 20%
    16:00 +47°C° 0 mm 5 mps 749 mmHg 24%
    17:00 +45°C° 0 mm 5 mps 749 mmHg 27%
    18:00 +42°C° 0 mm 4 mps 749 mmHg 31%
    19:00 +41°C° 0 mm 4 mps 749 mmHg 33%
    20:00 +40°C° 0 mm 3 mps 749 mmHg 35%
    21:00 +39°C° 0 mm 3 mps 750 mmHg 37%
    22:00 +39°C° 0 mm 3 mps 750 mmHg 37%
    23:00 +39°C° 0 mm 3 mps 750 mmHg 37%
    Show more